Location: Ferchesar
(52.6477°N, 12.4298°E)
Time: 08:34:07
(UTC+01:00)

Vanguard 3 - Pass Details

Date: 06 December 2021
Orbit: 508 x 3260 km, 33.3° (Epoch: 25 January)

Event Time Altitude Azimuth Distance (km) Brightness Sun altitude
Exits shadow 05:07:40 15° 234° (SW) 5,729 11.0 -25.7°
Maximum altitude 05:22:04 39° 180° (S) 3,972 10.6 -23.6°
Drops below altitude 10° 05:35:31 10° 119° (ESE) 4,924 12.1 -21.5°
Sets 05:39:05 0° 112° (ESE) 5,589 12.9 -21.0°
